Regional Weather Roundup
Issued by NWS

Home | Current Version | Previous Version | Graphics & Text | Print | Product List | Glossary On
Versions: 1 2 3 4 5 6 7 8 9 10 11 12 13 14 15 16 17 18 19 20 21 22 23 24 25 26 27 28 29 30 31 32 33 34 35 36 37 38 39 40 41 42 43 44 45 46 47 48 49 50
000
ASUS43 KDTX 290210
RWRMI
MICHIGAN HOURLY REGIONAL WEATHER ROUNDUP
NATIONAL WEATHER SERVICE DETROIT/PONTIAC MI
1000 PM EDT WED SEP 28 2016

NOTE: "FAIR" INDICATES FEW OR NO CLOUDS BELOW 12,000 FEET WITH NO
SIGNIFICANT WEATHER AND/OR OBSTRUCTION TO VISIBILITY.

MIZ047>049-052>055-059>063-066>070-074>076-081>083-290300-
SOUTHEAST LOWER MICHIGAN

CITY           SKY/WX    TMP DP  RH WIND       PRES   REMARKS
ADRIAN         HVY RAIN  57  55  93 E10G20    29.99S FOG
ALMA           PTCLDY    56  54  93 MISG      30.08S
ANN ARBOR      LGT RAIN  58  55  90 N8        29.98S
CARO           PTCLDY    60  52  75 NE5       30.06R
DETROIT CITY   LGT RAIN  60  58  92 E7        30.02R
DETROIT        RAIN      58  57  97 NE7       30.01R FOG
FLINT          CLOUDY    58  55  90 NE8       30.04R
GROSSE ILE     LGT RAIN  59  57  93 NE10      29.99S
HILLSDALE      RAIN      55  54  94 NE8       29.99R
HOWELL         CLOUDY    56  55  94 CALM      30.02S

CITY           SKY/WX    TMP DP  RH WIND       PRES   REMARKS
JACKSON        RAIN      56  55  97 NE10      30.01R
LAMBERTVILLE   LGT RAIN  58  56  92 NE5       29.98S
LANSING        CLOUDY    57  51  80 N13       30.03S
LAPEER         CLOUDY    63  52  67 E9G20     30.05R
MASON          CLOUDY    56  53  90 CALM      30.03R
MONROE         CLOUDY    58  57  96 NW5       29.98S
MT. CLEMENS    CLOUDY    63  53  71 NE15      30.00R
PONTIAC        CLOUDY    60  55  83 SE5       30.03R
PORT HURON     MOCLDY    61  54  77 NE7       30.04S
TRI CITIES     CLEAR     58  56  93 N12       30.08R
MIDLAND        FAIR      56  55  93 N8        30.08S
TROY           CLOUDY    64  53  66 E8        30.04R
SAGINAW HB     CLOUDY    61  54  77 N9        30.06R
$$
MIZ043>046-050>051-056>058-064>065-071>073-077>080-290300-
SOUTHWEST LOWER MICHIGAN

CITY           SKY/WX    TMP DP  RH WIND       PRES   REMARKS
BATTLE CREEK   LGT RAIN  57  55  93 NE8       30.02R
BENTON HARBOR  MOCLDY    58  52  80 VRB5      30.03R
BIG RAPIDS     CLEAR     58  51  77 NE6       30.11R
COLDWATER      RAIN      56  55  94 NE14      29.99S
FREMONT        FAIR      57  49  75 NE8       30.08S
HOLLAND        MOCLDY    58  52  80 N7        30.06R
GRAND RAPIDS   CLOUDY    56  52  86 NE12      30.05S
IONIA          CLOUDY    55  51  89 N9        30.04S
KALAMAZOO      CLOUDY    57  52  83 N6        30.03R
LUDINGTON      MOCLDY    58  52  80 NE9       30.13R
MARSHALL       RAIN      56  55  97 CALM      30.01R
MOUNT PLEASANT CLEAR     56  53  87 N10       30.08S
MUSKEGON       CLOUDY    59  52  77 NE7       30.09R
SOUTH HAVEN    CLOUDY    58  56  90 N8        30.04R
$$
MIZ016>042-290300-
NORTHERN LOWER MICHIGAN

CITY           SKY/WX    TMP DP  RH WIND       PRES   REMARKS
ALPENA         CLEAR     56  52  86 NE9       30.19R
BEAVER ISLAND  CLEAR     57  55  92 NE6       30.24R
BELLAIRE       CLOUDY    54  52  94 NW5       30.20F
CADILLAC       CLOUDY    56  49  76 NE8       30.15R
CHARLEVOIX     CLEAR     61  51  70 NE5       30.24R
FRANKFORT      CLOUDY    62  50  65 N5        30.18S
GAYLORD        PTCLDY    58  49  72 NE7       30.20S
GRAYLING       PTCLDY    52  51  97 NW3       30.19S
HARBOR SPRINGS CLEAR     61  49  65 NE9       30.21R
HOUGHTON LAKE  CLEAR     53  50  89 NE8       30.17R
MANISTEE       CLEAR     60  51  72 NE13      30.14S
OSCODA         MOCLDY    63  58  86 NE13      30.13S
PELLSTON       CLEAR     49  46  90 CALM      30.23R
ROGERS CITY    PTCLDY    61  55  82 NE3       30.22R
TRAVERSE CITY  CLOUDY    63  52  67 NE12      30.17S
$$
MIZ007>008-015-290300-
EASTERN UPPER MICHIGAN

CITY           SKY/WX    TMP DP  RH WIND       PRES   REMARKS
KINROSS        CLEAR     56  54  93 N7        30.25R
MACKINAC ISLAN CLEAR     58  53  81 N6        30.23R
NEWBERRY       CLEAR     54  53  97 N6        30.27R
S. S. MARIE    CLEAR     59  48  67 N5        30.25R
MUNISING         N/A     59  57  93 N9        30.29R
$$
MIZ004>006-011>014-085-290300-
CENTRAL UPPER MICHIGAN

CITY           SKY/WX    TMP DP  RH WIND       PRES   REMARKS
MANISTIQUE     CLEAR     54  52  92 N9        30.26R
ESCANABA       CLEAR     55  53  93 VRB6      30.28R
MENOMINEE      CLEAR     56  52  86 N9G17     30.26R
SAWYER-GWINN   CLOUDY    54  50  87 N7        30.32R
$$
MIZ001>003-009>011-084-290300-
WESTERN UPPER MICHIGAN

CITY           SKY/WX    TMP DP  RH WIND       PRES   REMARKS
IRON MOUNTAIN  CLEAR     52  48  86 N7        30.30R
HOUGHTON       CLEAR     50  46  86 N5        30.33S
COPPER HARBOR    N/A     57  51  80 NE10      30.33R
IRONWOOD       MOCLDY    51  49  92 N5        30.36R
$$

ABBREVIATIONS USED IN REMARKS
   TC - TEMPERATURE IN CELSIUS
  WCI - WIND CHILL INDEX
   HX - HEAT INDEX
  VSB - VISIBILITY





USA.gov is the U.S. government's official web portal to all federal, state and local government web resources and services.